Temperature
14 13 13 13 14 14 15 15 15 15 16 16 15 15 16 17 17 17 18 19 20 20 21 21 20 20 20 19 18 18 17 16 15 14 13 12 12 12 11 11 11 10 10 10
12 12 14 14 14 15 15 14 15 15 16 16 15 15 15 15 16 18 18 19 19 20 20 21 20 20 20 19 19 18 17 16 15 15 14 13 13 12 11 11 10 10 10 10
12 13 14 15 14 14 14 14 14 15 15 15 15 14 15 15 17 18 18 19 19 20 20 20 20 20 19 19 19 18 17 17 16 15 14 13 12 11 11 11 11 10 10 10
12 14 15 14 14 14 14 15 15 15 14 13 14 13 13 14 15 16 17 18 19 19 20 20 20 20 19 19 18 18 17 17 16 15 14 13 12 12 12 11 11 10 10 10
12 13 14 14 14 14 14 15 15 15 14 13 13 13 13 14 15 15 16 18 19 19 19 19 19 19 19 18 18 17 17 16 15 14 14 13 13 12 12 11 11 10 10 10
13 14 14 14 15 15 15 14 13 12 12 12 12 12 12 13 15 15 15 17 18 19 19 19 19 18 18 18 17 17 16 16 15 14 14 13 13 12 11 11 11 10 10 10
12 13 14 14 14 14 14 13 12 12 11 11 12 12 13 14 15 15 15 17 18 19 19 19 18 18 18 17 17 16 16 15 14 14 13 13 12 12 12 11 11 10 10 10
11 12 13 13 14 13 13 13 12 12 11 11 12 12 13 14 15 16 17 18 18 18 18 18 18 18 17 17 16 16 15 15 14 13 13 12 12 12 11 11 11 10 10 10
11 12 13 13 14 14 12 13 13 12 11 11 11 12 13 14 14 14 15 16 17 18 18 18 18 17 17 17 16 15 15 14 14 13 13 12 12 11 11 11 10 10 10 10
11 11 12 13 13 13 13 12 11 11 11 11 11 12 13 15 14 14 13 15 17 18 18 18 17 17 17 16 16 15 14 14 13 13 12 12 11 11 11 10 10 10 10 10
11 11 11 12 12 12 12 12 12 11 10 11 11 12 13 14 15 14 13 16 17 18 18 18 17 17 16 16 15 15 14 13 13 12 12 11 11 11 10 10 10 10 9 9
11 10 10 11 12 13 12 12 12 12 10 10 10 12 14 13 14 14 14 16 17 18 18 18 17 17 16 16 16 15 14 14 13 12 12 11 11 10 10 10 10 9 9 9
11 10 10 10 11 11 12 11 12 12 10 10 10 12 14 13 13 14 15 16 17 17 17 17 17 17 16 16 16 15 14 14 13 12 11 11 10 10 10 10 9 9 9 9
12 9 10 11 11 11 11 11 11 11 11 10 10 12 14 14 13 13 15 16 17 17 17 17 17 17 16 16 15 15 14 14 13 12 11 11 10 10 9 9 9 9 8 8
11 10 10 11 11 11 11 11 11 12 12 11 12 12 13 14 13 14 15 16 16 16 16 17 16 16 16 16 15 15 14 13 13 12 11 11 10 10 9 9 8 8 8 8
9 9 10 10 11 11 11 12 12 12 12 12 12 12 13 14 14 14 15 15 15 16 16 16 16 16 16 15 15 14 14 13 12 12 11 10 10 9 9 8 8 8 8 7
8 8 9 10 10 11 10 12 12 12 12 12 12 13 13 13 12 14 15 15 15 16 16 16 16 16 16 15 15 14 14 13 12 11 11 10 9 9 8 8 8 7 7 7
8 8 8 8 9 9 11 12 12 12 12 12 12 12 13 13 15 16 17 17 16 16 16 16 16 16 15 15 14 14 13 12 12 11 10 10 9 8 8 7 7 7 7 6
8 8 7 7 9 9 10 11 11 12 12 12 12 12 12 14 13 14 16 16 17 17 16 16 16 15 15 14 14 13 13 12 11 11 10 9 9 8 7 7 7 6 6 6
8 8 7 7 8 9 11 11 12 12 11 12 12 12 12 11 11 12 15 16 16 16 16 15 15 15 14 14 13 13 12 12 11 10 10 9 8 7 7 7 6 6 5 5
7 7 7 7 8 9 10 11 11 11 12 12 13 13 12 11 13 15 15 15 15 15 15 15 14 14 14 13 13 12 12 11 10 10 9 8 8 7 6 6 5 5 4 4
8 7 7 7 7 9 10 10 12 12 14 14 14 14 13 14 14 15 15 15 15 14 14 14 14 13 13 12 12 11 11 10 10 9 8 8 7 6 6 5 5 4 4 3
8 8 8 9 10 10 11 12 14 15 14 15 15 15 15 14 14 14 14 14 14 14 14 13 13 13 12 12 11 11 10 10 9 8 8 7 6 6 5 5 4 3 3 3
7 7 7 8 9 10 11 13 14 15 15 16 16 16 15 15 14 14 14 13 13 13 13 12 12 12 11 11 10 10 9 9 8 8 7 6 6 5 5 4 3 3 3 2
6 6 7 8 9 9 11 13 14 14 15 15 15 15 15 15 14 14 13 13 13 12 12 12 11 11 10 10 9 9 9 8 7 7 6 5 5 4 4 3 3 2 2 2
6 7 8 9 9 9 10 14 14 14 14 14 15 14 14 14 14 14 13 13 12 12 11 11 10 10 9 9 8 8 8 7 7 6 5 5 4 4 3 3 2 2 1 1
Wind_Speed
6 6 12 14 13 8 7 6 7 7 5 5 10 13 15 11 7 9 9 9 10 11 12 9 10 11 11 12 14 16 16 15 14 11 10 10 9 8 7 9 14 16 15 15
5 14 15 10 9 9 8 7 8 6 3 5 8 12 11 10 8 9 10 10 10 9 7 6 7 8 12 14 15 15 16 16 16 13 11 8 7 6 7 7 11 15 15 15
15 8 10 10 10 11 11 11 10 6 4 3 4 9 8 7 6 6 7 8 8 9 9 8 7 8 9 12 14 15 15 15 15 13 8 6 5 4 4 6 7 10 14 14
12 9 10 12 12 12 13 10 9 7 3 5 2 6 8 7 7 8 8 7 7 7 8 7 7 8 10 11 11 12 13 13 14 14 13 14 10 9 9 7 7 7 11 12
12 11 13 15 15 14 8 7 8 6 5 5 4 5 9 6 8 10 10 9 8 7 8 8 9 9 9 8 9 10 11 12 12 14 15 15 10 8 6 6 8 8 7 10
9 8 12 12 9 11 7 5 3 2 2 7 9 7 8 7 10 9 8 8 8 7 6 6 6 6 5 6 7 9 11 11 12 13 14 15 13 10 9 9 9 8 5 6
9 9 7 7 8 7 8 7 2 2 4 8 6 7 10 11 11 11 11 10 9 7 6 6 7 7 7 8 8 9 11 11 11 13 13 13 14 14 14 12 11 9 7 6
13 12 12 9 11 11 11 12 9 8 7 5 4 9 10 10 8 8 9 8 8 7 6 7 8 8 8 8 9 9 11 11 11 12 12 11 12 11 10 11 10 11 9 8
13 11 7 9 6 13 11 10 8 6 3 3 6 7 8 3 5 7 7 7 8 8 8 7 7 7 8 8 9 10 11 10 10 11 11 10 11 11 10 10 9 9 7 7
7 7 7 7 6 6 11 11 6 6 7 7 6 7 7 8 10 9 9 10 10 8 7 7 7 7 7 7 7 8 9 10 9 10 10 9 10 11 10 9 10 9 8 8
5 7 6 9 12 13 8 9 8 8 6 7 6 8 9 13 13 13 13 11 11 10 9 8 7 6 6 6 6 7 8 8 8 9 9 9 9 9 9 9 10 9 8 9
7 5 6 10 7 9 9 11 10 10 8 7 5 8 7 11 11 11 11 10 9 9 8 7 7 5 5 6 6 7 7 8 8 8 8 8 8 8 9 9 9 9 9 9
10 6 6 3 3 7 9 9 10 8 6 7 8 8 5 3 5 7 9 9 8 8 7 6 5 6 7 7 7 7 8 8 7 7 8 8 8 8 9 8 8 8 8 8
11 6 9 14 10 10 10 10 11 9 9 10 12 10 7 5 6 6 7 8 8 8 8 7 7 7 7 7 7 7 7 7 7 7 8 8 8 8 8 7 7 8 8 8
8 8 8 7 6 10 10 13 15 16 16 14 13 14 14 11 10 9 9 8 7 8 8 8 8 8 7 6 6 7 7 7 7 8 8 8 7 7 7 7 7 7 7 7
5 8 8 7 8 10 10 16 20 21 18 16 13 14 11 10 8 8 9 9 9 9 9 9 9 8 8 8 8 7 7 7 8 8 8 7 7 7 7 7 6 7 6 6
8 6 9 9 6 5 13 19 21 17 14 15 20 19 9 9 12 13 12 11 11 11 11 10 10 10 9 9 8 9 8 7 8 8 7 7 7 7 7 6 7 7 6 6
9 7 5 5 6 12 12 11 14 17 16 16 14 11 13 15 13 11 11 12 12 11 10 10 9 8 7 6 6 6 7 8 8 7 7 7 7 7 6 6 6 5 5 5
11 9 5 6 10 9 8 8 14 15 16 16 18 15 11 8 5 7 8 10 12 12 10 9 8 7 6 6 7 7 7 7 7 7 7 7 7 7 7 6 6 4 4 4
10 9 6 6 8 12 10 7 8 9 13 12 15 16 12 8 8 11 8 8 8 8 7 7 6 6 6 6 7 9 8 8 8 8 7 6 7 7 7 7 5 3 4 4
9 8 11 8 8 10 8 5 10 10 11 8 13 14 12 13 14 8 8 8 8 8 7 7 8 7 6 7 8 8 7 7 7 6 6 6 6 6 6 5 4 4 4 3
10 9 10 9 8 11 6 9 12 9 4 5 8 10 12 11 8 7 9 9 9 8 7 8 8 6 5 7 9 8 7 6 6 7 7 6 5 5 5 5 4 4 4 3
8 9 7 11 11 5 7 9 8 5 5 6 6 7 9 7 7 7 8 9 8 8 8 7 9 7 5 6 9 9 6 7 8 8 7 6 5 5 5 5 5 3 3 3
5 3 5 5 8 8 6 6 5 6 6 6 6 6 8 8 9 9 9 8 8 7 7 7 9 8 6 5 6 7 7 8 9 8 6 6 6 5 4 3 4 3 3 3
6 4 5 7 7 5 8 9 8 5 4 3 3 5 8 10 9 9 9 9 9 7 6 7 8 8 7 7 7 7 8 9 9 8 6 5 5 5 4 3 2 3 3 4
8 9 10 10 7 6 10 10 8 7 7 7 6 4 5 8 11 10 9 8 8 8 8 8 8 8 7 8 7 6 7 9 9 7 6 5 4 3 3 3 1 1 1 1
Wind_Direction
177 172 205 205 200 196 186 196 228 241 236 201 234 250 261 263 254 249 250 248 245 246 250 240 218 202 189 185 184 184 181 178 174 176 177 178 183 183 182 184 187 186 185 182
174 218 213 195 197 205 218 230 243 267 261 222 251 262 264 260 247 236 237 242 242 249 257 237 208 186 183 184 185 184 184 180 181 184 182 179 171 176 182 181 185 187 185 182
200 212 192 191 200 206 221 219 225 237 309 320 304 295 277 272 255 251 244 239 240 234 232 226 205 193 183 185 186 187 185 182 183 174 160 142 132 134 164 183 188 189 185 182
217 219 182 193 206 197 228 218 208 214 230 268 234 279 276 265 274 262 255 247 238 231 222 215 203 194 191 194 186 184 183 181 179 171 172 171 178 185 190 183 185 184 184 182
214 199 192 203 206 191 207 196 197 207 207 257 245 241 273 265 253 256 251 243 234 228 214 210 205 199 194 185 181 181 177 180 178 178 179 181 185 184 167 165 174 182 186 185
219 207 199 202 197 189 162 114 95 65 142 249 225 211 268 231 223 234 241 234 225 219 213 211 203 182 179 173 173 174 176 182 180 180 181 185 183 173 167 175 182 186 187 189
211 222 213 178 168 177 157 141 156 221 229 243 208 209 247 236 224 215 217 219 217 211 201 197 188 183 182 178 178 177 178 183 182 182 185 188 185 182 184 185 187 187 188 196
191 209 203 192 186 184 187 172 181 194 212 252 213 225 248 247 231 221 212 207 204 205 206 204 201 194 190 188 184 182 185 187 184 186 189 189 186 188 192 189 188 193 198 199
189 211 193 196 172 161 176 194 171 153 187 230 247 262 291 255 215 208 204 198 203 207 206 206 203 197 193 190 191 188 188 189 188 189 188 189 189 190 191 188 186 192 193 190
158 190 198 182 143 180 173 161 143 166 182 224 258 245 231 220 216 214 211 210 214 212 208 207 201 199 197 195 192 187 187 190 190 189 190 192 192 192 187 184 188 190 188 183
157 166 182 174 188 182 155 169 167 170 183 185 233 254 220 210 208 208 212 210 207 205 206 206 205 200 193 187 184 187 191 191 190 191 191 189 189 186 182 186 191 190 187 184
175 158 191 210 223 183 173 180 168 184 206 191 199 259 251 221 214 201 205 208 208 206 203 200 197 186 185 190 191 192 193 194 194 189 186 188 184 180 184 189 189 185 185 186
179 166 160 190 217 190 191 186 182 172 158 185 199 250 286 228 214 202 199 204 204 203 200 194 189 191 196 197 196 196 197 197 190 181 182 183 182 183 189 189 183 182 181 181
179 180 193 200 203 186 196 195 183 171 202 216 220 228 255 241 223 224 217 209 200 199 196 192 198 205 205 201 199 198 200 193 183 179 182 187 189 188 187 182 178 179 178 177
178 200 211 220 196 181 200 201 195 205 211 215 225 224 233 230 221 219 214 204 199 201 201 202 205 208 206 203 203 200 198 188 178 177 184 190 183 176 173 174 174 173 175 179
182 193 198 222 207 197 212 211 209 216 219 225 234 242 233 231 219 218 219 205 204 209 208 206 206 204 205 205 204 199 196 186 174 178 185 177 167 168 170 171 167 167 171 172
190 174 186 215 209 200 229 213 209 215 219 215 231 237 222 212 213 212 213 209 208 209 208 206 206 206 207 205 198 196 193 173 170 177 174 167 165 167 171 165 163 170 174 172
191 184 179 177 175 220 233 204 202 216 226 221 228 226 216 219 222 219 209 205 212 209 205 204 200 201 202 195 186 178 161 159 166 170 169 166 163 165 161 160 168 173 171 178
191 182 178 180 204 248 270 214 197 203 233 225 227 230 224 214 217 246 221 205 205 203 199 198 193 186 178 175 168 152 153 156 161 170 171 168 164 162 161 168 173 173 170 180
181 179 178 177 198 226 233 211 181 177 243 230 216 223 218 176 211 240 213 196 194 187 178 175 165 153 157 163 148 146 156 159 172 176 171 164 162 164 169 174 170 166 169 182
171 180 191 190 209 246 238 184 136 183 235 225 207 212 200 198 220 220 175 178 179 173 167 158 151 154 164 155 144 149 156 172 173 154 145 148 155 161 162 157 155 152 156 159
183 181 190 187 207 238 213 151 181 215 210 202 201 204 203 214 214 182 172 172 166 162 158 153 149 152 151 148 145 147 161 160 138 133 135 140 144 146 142 142 143 145 151 162
198 192 185 199 218 234 191 198 218 192 195 205 196 204 193 191 187 177 173 169 167 163 159 153 150 145 140 147 148 152 160 141 132 129 133 133 130 132 138 144 147 146 154 171
238 190 179 218 239 238 237 243 234 216 214 210 196 183 171 175 175 172 167 166 163 161 157 151 145 147 151 147 143 149 145 139 134 136 137 135 134 131 128 135 146 155 170 184
209 190 201 229 247 244 239 227 227 229 228 208 187 185 175 163 170 173 171 171 168 161 155 152 153 154 154 144 139 140 140 136 134 136 136 135 136 138 137 138 158 172 193 194
206 202 208 226 219 215 240 233 216 210 215 199 182 183 185 175 172 170 171 169 163 158 151 148 149 149 147 143 140 140 141 140 138 139 141 143 141 138 139 138 94 35 220 264
Height
1490 1496 1496 1495 1496 1499 1502 1504 1505 1501 1496 1499 1499 1496 1489 1485 1485 1484 1483 1483 1483 1483 1484 1485 1487 1489 1492 1494 1497 1500 1503 1506 1510 1513 1515 1518 1521 1524 1527 1530 1532 1534 1536 1537
1491 1490 1485 1489 1493 1497 1500 1503 1503 1499 1494 1496 1497 1493 1486 1482 1481 1479 1478 1478 1477 1478 1479 1480 1481 1483 1486 1489 1492 1495 1498 1501 1504 1507 1510 1514 1517 1520 1523 1526 1528 1531 1533 1534
1482 1479 1481 1487 1491 1495 1496 1499 1500 1499 1495 1494 1496 1495 1487 1479 1476 1475 1474 1473 1473 1473 1474 1475 1477 1478 1481 1484 1487 1490 1493 1497 1500 1503 1507 1511 1514 1517 1519 1521 1524 1526 1529 1531
1478 1475 1477 1482 1486 1489 1493 1489 1493 1496 1501 1505 1500 1507 1490 1480 1475 1471 1469 1469 1468 1469 1470 1471 1472 1474 1477 1480 1483 1486 1489 1492 1495 1498 1501 1504 1506 1509 1511 1515 1519 1522 1525 1527
1471 1470 1473 1477 1477 1481 1485 1484 1489 1492 1499 1504 1501 1505 1491 1479 1476 1469 1465 1464 1464 1465 1466 1467 1469 1471 1473 1476 1479 1482 1485 1488 1491 1493 1496 1499 1502 1505 1509 1513 1516 1518 1521 1523
1465 1464 1466 1468 1471 1475 1480 1486 1491 1497 1502 1507 1498 1503 1491 1479 1469 1464 1461 1460 1461 1462 1463 1464 1466 1468 1470 1473 1475 1478 1481 1483 1486 1489 1491 1494 1497 1501 1504 1507 1511 1514 1516 1518
1464 1462 1461 1463 1470 1474 1478 1491 1503 1505 1509 1504 1492 1494 1482 1464 1458 1456 1456 1456 1458 1459 1460 1461 1463 1464 1467 1469 1472 1474 1476 1479 1481 1484 1486 1490 1493 1497 1500 1503 1506 1509 1511 1513
1461 1462 1457 1457 1460 1468 1473 1479 1494 1502 1504 1499 1489 1488 1469 1454 1451 1451 1452 1453 1455 1456 1457 1459 1460 1461 1463 1466 1468 1470 1472 1474 1477 1479 1482 1485 1489 1492 1495 1499 1501 1504 1506 1509
1452 1455 1450 1450 1451 1458 1469 1474 1476 1488 1492 1495 1488 1476 1462 1451 1450 1450 1450 1451 1452 1453 1454 1456 1457 1458 1460 1462 1464 1466 1468 1470 1473 1475 1478 1481 1484 1487 1491 1494 1497 1500 1502 1505
1442 1451 1447 1447 1450 1452 1456 1465 1478 1485 1493 1495 1485 1477 1465 1452 1450 1449 1449 1448 1448 1450 1451 1453 1454 1455 1457 1459 1461 1462 1464 1466 1468 1471 1474 1477 1480 1483 1486 1490 1492 1495 1498 1500
1437 1447 1448 1446 1446 1450 1457 1462 1466 1476 1481 1487 1487 1472 1446 1442 1440 1442 1442 1443 1444 1446 1448 1450 1451 1453 1455 1456 1458 1459 1461 1462 1465 1467 1470 1473 1476 1479 1482 1485 1488 1491 1493 1496
1433 1441 1447 1443 1438 1439 1444 1449 1457 1467 1474 1474 1477 1463 1433 1433 1433 1435 1437 1439 1441 1443 1445 1447 1449 1450 1452 1453 1455 1456 1457 1459 1461 1463 1466 1469 1472 1475 1477 1480 1483 1486 1489 1491
1429 1437 1447 1448 1446 1442 1441 1443 1446 1452 1463 1470 1470 1456 1431 1431 1431 1432 1434 1436 1438 1440 1442 1444 1446 1447 1449 1450 1452 1453 1454 1456 1457 1460 1462 1465 1467 1470 1473 1476 1479 1482 1484 1486
1421 1429 1433 1434 1430 1431 1436 1439 1441 1449 1455 1457 1453 1444 1433 1431 1431 1431 1432 1433 1435 1437 1439 1441 1443 1444 1446 1447 1448 1450 1451 1452 1454 1456 1458 1460 1463 1466 1468 1472 1474 1477 1479 1481
1416 1423 1424 1423 1423 1425 1428 1430 1434 1437 1436 1443 1437 1437 1429 1427 1427 1427 1428 1430 1432 1434 1436 1438 1439 1441 1442 1444 1445 1446 1447 1449 1450 1452 1454 1456 1459 1462 1464 1467 1470 1472 1474 1476
1415 1418 1422 1423 1421 1421 1423 1422 1425 1426 1427 1429 1430 1428 1420 1421 1423 1424 1426 1427 1428 1430 1432 1434 1436 1437 1438 1439 1441 1442 1443 1445 1446 1448 1450 1452 1455 1457 1460 1462 1465 1467 1469 1471
1415 1418 1421 1423 1421 1422 1422 1412 1414 1416 1415 1419 1420 1414 1416 1418 1418 1419 1420 1422 1424 1425 1427 1429 1431 1432 1434 1435 1437 1438 1440 1441 1443 1444 1446 1448 1451 1453 1456 1458 1460 1462 1464 1466
1410 1415 1419 1422 1425 1428 1405 1398 1401 1405 1405 1407 1406 1406 1407 1409 1410 1412 1414 1417 1418 1420 1423 1425 1427 1428 1430 1431 1433 1434 1436 1437 1439 1441 1443 1445 1447 1449 1452 1454 1456 1458 1460 1461
1400 1409 1417 1419 1419 1412 1401 1394 1394 1399 1399 1396 1398 1399 1401 1403 1406 1407 1409 1411 1413 1415 1418 1420 1422 1424 1426 1427 1429 1430 1432 1433 1435 1437 1439 1441 1443 1445 1447 1449 1451 1453 1455 1456
1393 1399 1410 1414 1414 1408 1390 1385 1385 1394 1397 1387 1389 1391 1395 1400 1407 1401 1402 1405 1408 1411 1413 1416 1418 1420 1422 1423 1425 1426 1428 1430 1432 1434 1436 1438 1440 1442 1443 1445 1447 1449 1450 1452
1392 1396 1401 1406 1405 1394 1381 1379 1383 1397 1387 1378 1380 1383 1388 1391 1391 1392 1397 1400 1403 1406 1408 1411 1413 1416 1418 1420 1421 1423 1425 1427 1429 1431 1433 1435 1437 1438 1440 1442 1443 1445 1446 1447
1382 1388 1392 1397 1399 1390 1373 1376 1378 1374 1372 1372 1373 1376 1379 1381 1384 1388 1391 1394 1398 1400 1404 1406 1409 1411 1414 1416 1418 1419 1421 1424 1426 1428 1430 1432 1434 1435 1437 1438 1439 1441 1442 1443
1374 1373 1375 1377 1374 1367 1365 1365 1366 1367 1368 1369 1370 1372 1374 1377 1379 1383 1386 1390 1393 1396 1399 1402 1405 1407 1410 1412 1415 1417 1419 1421 1423 1425 1427 1429 1430 1432 1433 1435 1436 1437 1438 1438
1369 1367 1370 1371 1366 1362 1361 1361 1363 1364 1365 1366 1367 1369 1371 1372 1375 1379 1383 1386 1390 1393 1396 1399 1401 1404 1407 1409 1412 1414 1416 1418 1421 1422 1424 1426 1427 1429 1430 1431 1432 1433 1433 1433
1363 1364 1364 1364 1359 1358 1357 1358 1360 1361 1363 1364 1365 1367 1368 1370 1373 1376 1380 1383 1386 1390 1393 1396 1398 1401 1404 1407 1409 1412 1414 1416 1418 1420 1422 1423 1425 1426 1427 1428 1429 1429 1429 1429
1356 1357 1359 1355 1352 1354 1352 1353 1356 1358 1359 1361 1362 1364 1366 1368 1370 1374 1377 1380 1383 1386 1389 1392 1395 1398 1401 1404 1407 1409 1412 1414 1415 1417 1419 1420 1422 1423 1424 1424 1425 1425 1426 1425